User: anonymous   Login
Location: Cheching
(60.0667°N, 164.2167°W)
Time: 19:00:10
(UTC+00:00)
Language:

DMSP 5D-2 F13 DEB - Orbit

View from above orbital plane
View from above orbital plane
View from above satellite
View from above satellite

Ground track
Ground track

The orbit data is extracted from the following two-line orbital elements,

1 40676U 95015FQ  21293.30281711  .00001130  00000-0  54357-3 0  9995
2 40676  98.7782 303.8741 0005307 301.7744  58.2915 14.20825635333468
Epoch (UTC): 20 October 2021 07:16:03
Eccentricity: 0.0005307
inclination: 98.7782°
perigee height: 819 km
apogee height: 826 km
right ascension of ascending node: 303.8741°
argument of perigee: 301.7744°
revolutions per day: 14.20825635
mean anomaly at epoch: 58.2915°
orbit number at epoch: 33346

The dashed part of the orbit path shows where the satellite is in the earth's shadow,  

DLR